Year,Month,Day,Hour,Minute,Value (Times are PST for temperature in C)
2013,07,13,00,00,13.30
2013,07,13,00,01,13.30
2013,07,13,00,02,13.30
2013,07,13,00,03,13.30
2013,07,13,00,04,13.30
2013,07,13,00,05,13.30
2013,07,13,00,06,13.20
2013,07,13,00,07,13.20
2013,07,13,00,08,13.20
2013,07,13,00,09,13.20
2013,07,13,00,10,13.20
2013,07,13,00,11,13.20
2013,07,13,00,12,13.20
2013,07,13,00,13,13.20
2013,07,13,00,14,13.20
2013,07,13,00,15,13.20
2013,07,13,00,16,13.20
2013,07,13,00,17,13.20
2013,07,13,00,18,13.20
2013,07,13,00,19,13.20
2013,07,13,00,20,13.20
2013,07,13,00,21,13.20
2013,07,13,00,22,13.20
2013,07,13,00,23,13.20
2013,07,13,00,24,13.10
2013,07,13,00,25,13.10
2013,07,13,00,26,13.10
2013,07,13,00,27,13.10
2013,07,13,00,28,13.00
2013,07,13,00,29,13.00
2013,07,13,00,30,13.00
2013,07,13,00,31,13.00
2013,07,13,00,32,13.00
2013,07,13,00,33,13.00
2013,07,13,00,34,13.00
2013,07,13,00,35,12.90
2013,07,13,00,36,12.90
2013,07,13,00,37,12.90
2013,07,13,00,38,12.90
2013,07,13,00,39,12.90
2013,07,13,00,40,12.90
2013,07,13,00,41,12.90
2013,07,13,00,42,12.90
2013,07,13,00,43,12.90
2013,07,13,00,44,12.90
2013,07,13,00,45,12.80
2013,07,13,00,46,12.80
2013,07,13,00,47,12.80
2013,07,13,00,48,12.80
2013,07,13,00,49,12.90
2013,07,13,00,50,12.90
2013,07,13,00,51,12.90
2013,07,13,00,52,12.90
2013,07,13,00,53,12.90
2013,07,13,00,54,12.90
2013,07,13,00,55,12.90
2013,07,13,00,56,12.80
2013,07,13,00,57,12.80
2013,07,13,00,58,12.80
2013,07,13,00,59,12.80
2013,07,13,01,00,12.80
2013,07,13,01,01,12.80
2013,07,13,01,02,12.80
2013,07,13,01,03,12.80
2013,07,13,01,04,12.80
2013,07,13,01,05,12.80
2013,07,13,01,06,12.80
2013,07,13,01,07,12.80
2013,07,13,01,08,12.70
2013,07,13,01,09,12.80
2013,07,13,01,10,12.70
2013,07,13,01,11,12.70
2013,07,13,01,12,12.70
2013,07,13,01,13,12.70
2013,07,13,01,14,12.70
2013,07,13,01,15,12.70
2013,07,13,01,16,12.70
2013,07,13,01,17,12.70
2013,07,13,01,18,12.60
2013,07,13,01,19,12.60
2013,07,13,01,20,12.60
2013,07,13,01,21,12.60
2013,07,13,01,22,12.60
2013,07,13,01,23,12.60
2013,07,13,01,24,12.50
2013,07,13,01,25,12.50
2013,07,13,01,26,12.50
2013,07,13,01,27,12.50
2013,07,13,01,28,12.50
2013,07,13,01,29,12.50
2013,07,13,01,30,12.50
2013,07,13,01,31,12.50
2013,07,13,01,32,12.50
2013,07,13,01,33,12.40
2013,07,13,01,34,12.40
2013,07,13,01,35,12.40
2013,07,13,01,36,12.40
2013,07,13,01,37,12.40
2013,07,13,01,38,12.40
2013,07,13,01,39,12.40
2013,07,13,01,40,12.40
2013,07,13,01,41,12.40
2013,07,13,01,42,12.40
2013,07,13,01,43,12.40
2013,07,13,01,44,12.40
2013,07,13,01,45,12.30
2013,07,13,01,46,12.30
2013,07,13,01,47,12.30
2013,07,13,01,48,12.30
2013,07,13,01,49,12.30
2013,07,13,01,50,12.30
2013,07,13,01,51,12.30
2013,07,13,01,52,12.30
2013,07,13,01,53,12.30
2013,07,13,01,54,12.30
2013,07,13,01,55,12.30
2013,07,13,01,56,12.20
2013,07,13,01,57,12.20
2013,07,13,01,58,12.20
2013,07,13,01,59,12.20
2013,07,13,02,00,12.20
2013,07,13,02,01,12.20
2013,07,13,02,02,12.20
2013,07,13,02,03,12.20
2013,07,13,02,04,12.20
2013,07,13,02,05,12.20
2013,07,13,02,06,12.20
2013,07,13,02,07,12.20
2013,07,13,02,08,12.20
2013,07,13,02,09,12.10
2013,07,13,02,10,12.10
2013,07,13,02,11,12.10
2013,07,13,02,12,12.10
2013,07,13,02,13,12.10
2013,07,13,02,14,12.10
2013,07,13,02,15,12.10
2013,07,13,02,16,12.10
2013,07,13,02,17,12.10
2013,07,13,02,18,12.10
2013,07,13,02,19,12.10
2013,07,13,02,20,12.10
2013,07,13,02,21,12.00
2013,07,13,02,22,12.00
2013,07,13,02,23,12.00
2013,07,13,02,24,12.00
2013,07,13,02,25,12.00
2013,07,13,02,26,12.00
2013,07,13,02,27,12.00
2013,07,13,02,28,12.00
2013,07,13,02,29,11.90
2013,07,13,02,30,11.90
2013,07,13,02,31,11.90
2013,07,13,02,32,11.90
2013,07,13,02,33,11.90
2013,07,13,02,34,11.90
2013,07,13,02,35,11.90
2013,07,13,02,36,11.80
2013,07,13,02,37,11.80
2013,07,13,02,38,11.80
2013,07,13,02,39,11.80
2013,07,13,02,40,11.80
2013,07,13,02,41,11.80
2013,07,13,02,42,11.70
2013,07,13,02,43,11.70
2013,07,13,02,44,11.70
2013,07,13,02,45,11.70
2013,07,13,02,46,11.70
2013,07,13,02,47,11.70
2013,07,13,02,48,11.70
2013,07,13,02,49,11.70
2013,07,13,02,50,11.70
2013,07,13,02,51,11.70
2013,07,13,02,52,11.70
2013,07,13,02,53,11.70
2013,07,13,02,54,11.70
2013,07,13,02,55,11.70
2013,07,13,02,56,11.70
2013,07,13,02,57,11.70
2013,07,13,02,58,11.70
2013,07,13,02,59,11.70
2013,07,13,03,00,11.70
2013,07,13,03,01,11.70
2013,07,13,03,02,11.70
2013,07,13,03,03,11.70
2013,07,13,03,04,11.70
2013,07,13,03,05,11.70
2013,07,13,03,06,11.70
2013,07,13,03,07,11.70
2013,07,13,03,08,11.70
2013,07,13,03,09,11.60
2013,07,13,03,10,11.60
2013,07,13,03,11,11.60
2013,07,13,03,12,11.60
2013,07,13,03,13,11.60
2013,07,13,03,14,11.60
2013,07,13,03,15,11.50
2013,07,13,03,16,11.50
2013,07,13,03,17,11.50
2013,07,13,03,18,11.40
2013,07,13,03,19,11.40
2013,07,13,03,20,11.40
2013,07,13,03,21,11.30
2013,07,13,03,22,11.30
2013,07,13,03,23,11.20
2013,07,13,03,24,11.20
2013,07,13,03,25,11.20
2013,07,13,03,26,11.10
2013,07,13,03,27,11.10
2013,07,13,03,28,11.00
2013,07,13,03,29,10.90
2013,07,13,03,30,10.90
2013,07,13,03,31,10.80
2013,07,13,03,32,10.80
2013,07,13,03,33,10.80
2013,07,13,03,34,10.80
2013,07,13,03,35,10.80
2013,07,13,03,36,10.80
2013,07,13,03,37,10.80
2013,07,13,03,38,10.80
2013,07,13,03,39,10.80
2013,07,13,03,40,10.80
2013,07,13,03,41,10.80
2013,07,13,03,42,10.70
2013,07,13,03,43,10.70
2013,07,13,03,44,10.70
2013,07,13,03,45,10.70
2013,07,13,03,46,10.70
2013,07,13,03,47,10.70
2013,07,13,03,48,10.70
2013,07,13,03,49,10.70
2013,07,13,03,50,10.70
2013,07,13,03,51,10.70
2013,07,13,03,52,10.70
2013,07,13,03,53,10.70
2013,07,13,03,54,10.70
2013,07,13,03,55,10.70
2013,07,13,03,56,10.70
2013,07,13,03,57,10.60
2013,07,13,03,58,10.60
2013,07,13,03,59,10.60
2013,07,13,04,00,10.60
2013,07,13,04,01,10.60
2013,07,13,04,02,10.60
2013,07,13,04,03,10.60
2013,07,13,04,04,10.60
2013,07,13,04,05,10.60
2013,07,13,04,06,10.60
2013,07,13,04,07,10.60
2013,07,13,04,08,10.60
2013,07,13,04,09,10.60
2013,07,13,04,10,10.60
2013,07,13,04,11,10.60
2013,07,13,04,12,10.60
2013,07,13,04,13,10.60
2013,07,13,04,14,10.60
2013,07,13,04,15,10.60
2013,07,13,04,16,10.60
2013,07,13,04,17,10.60
2013,07,13,04,18,10.60
2013,07,13,04,19,10.50
2013,07,13,04,20,10.50
2013,07,13,04,21,10.40
2013,07,13,04,22,10.40
2013,07,13,04,23,10.40
2013,07,13,04,24,10.30
2013,07,13,04,25,10.30
2013,07,13,04,26,10.30
2013,07,13,04,27,10.20
2013,07,13,04,28,10.20
2013,07,13,04,29,10.20
2013,07,13,04,30,10.10
2013,07,13,04,31,10.10
2013,07,13,04,32,10.00
2013,07,13,04,33,10.00
2013,07,13,04,34,10.00
2013,07,13,04,35,9.90
2013,07,13,04,36,9.90
2013,07,13,04,37,9.80
2013,07,13,04,38,9.80
2013,07,13,04,39,9.80
2013,07,13,04,40,9.70
2013,07,13,04,41,9.70
2013,07,13,04,42,9.70
2013,07,13,04,43,9.70
2013,07,13,04,44,9.70
2013,07,13,04,45,9.60
2013,07,13,04,46,9.60
2013,07,13,04,47,9.60
2013,07,13,04,48,9.60
2013,07,13,04,49,9.60
2013,07,13,04,50,9.60
2013,07,13,04,51,9.60
2013,07,13,04,52,9.60
2013,07,13,04,53,9.60
2013,07,13,04,54,9.60
2013,07,13,04,55,9.60
2013,07,13,04,56,9.60
2013,07,13,04,57,9.60
2013,07,13,04,58,9.70
2013,07,13,04,59,9.70
2013,07,13,05,00,9.70
2013,07,13,05,01,9.70
2013,07,13,05,02,9.70
2013,07,13,05,03,9.70
2013,07,13,05,04,9.70
2013,07,13,05,05,9.70
2013,07,13,05,06,9.70
2013,07,13,05,07,9.70
2013,07,13,05,08,9.60
2013,07,13,05,09,9.60
2013,07,13,05,10,9.60
2013,07,13,05,11,9.50
2013,07,13,05,12,9.50
2013,07,13,05,13,9.40
2013,07,13,05,14,9.40
2013,07,13,05,15,9.30
2013,07,13,05,16,9.30
2013,07,13,05,17,9.30
2013,07,13,05,18,9.30
2013,07,13,05,19,9.20
2013,07,13,05,20,9.20
2013,07,13,05,21,9.20
2013,07,13,05,22,9.20
2013,07,13,05,23,9.20
2013,07,13,05,24,9.20
2013,07,13,05,25,9.20
2013,07,13,05,26,9.30
2013,07,13,05,27,9.40
2013,07,13,05,28,9.40
2013,07,13,05,29,9.40
2013,07,13,05,30,9.40
2013,07,13,05,31,9.40
2013,07,13,05,32,9.40
2013,07,13,05,33,9.40
2013,07,13,05,34,9.40
2013,07,13,05,35,9.40
2013,07,13,05,36,9.40
2013,07,13,05,37,9.30
2013,07,13,05,38,9.30
2013,07,13,05,39,9.30
2013,07,13,05,40,9.20
2013,07,13,05,41,9.20
2013,07,13,05,42,9.20
2013,07,13,05,43,9.10
2013,07,13,05,44,9.10
2013,07,13,05,45,9.10
2013,07,13,05,46,9.10
2013,07,13,05,47,9.10
2013,07,13,05,48,9.00
2013,07,13,05,49,9.00
2013,07,13,05,50,9.00
2013,07,13,05,51,9.00
2013,07,13,05,52,8.90
2013,07,13,05,53,8.90
2013,07,13,05,54,8.90
2013,07,13,05,55,8.90
2013,07,13,05,56,8.90
2013,07,13,05,57,8.90
2013,07,13,05,58,8.80
2013,07,13,05,59,8.80
2013,07,13,06,00,8.80
2013,07,13,06,01,8.80
2013,07,13,06,02,8.80
2013,07,13,06,03,8.80
2013,07,13,06,04,8.80
2013,07,13,06,05,8.90
2013,07,13,06,06,8.90
2013,07,13,06,07,8.90
2013,07,13,06,08,8.90
2013,07,13,06,09,8.90
2013,07,13,06,10,8.90
2013,07,13,06,11,8.90
2013,07,13,06,12,8.90
2013,07,13,06,13,8.90
2013,07,13,06,14,8.90
2013,07,13,06,15,9.00
2013,07,13,06,16,9.00
2013,07,13,06,17,9.00
2013,07,13,06,18,9.10
2013,07,13,06,19,9.10
2013,07,13,06,20,9.20
2013,07,13,06,21,9.20
2013,07,13,06,22,9.20
2013,07,13,06,23,9.30
2013,07,13,06,24,9.30
2013,07,13,06,25,9.40
2013,07,13,06,26,9.50
2013,07,13,06,27,9.60
2013,07,13,06,28,9.60
2013,07,13,06,29,9.60
2013,07,13,06,30,9.70
2013,07,13,06,31,9.70
2013,07,13,06,32,9.70
2013,07,13,06,33,9.70
2013,07,13,06,34,9.70
2013,07,13,06,35,9.70
2013,07,13,06,36,9.70
2013,07,13,06,37,9.70
2013,07,13,06,38,9.70
2013,07,13,06,39,9.70
2013,07,13,06,40,9.70
2013,07,13,06,41,9.70
2013,07,13,06,42,9.70
2013,07,13,06,43,9.70
2013,07,13,06,44,9.80
2013,07,13,06,45,9.80
2013,07,13,06,46,9.80
2013,07,13,06,47,9.80
2013,07,13,06,48,9.80
2013,07,13,06,49,9.90
2013,07,13,06,50,9.90
2013,07,13,06,51,9.90
2013,07,13,06,52,10.00
2013,07,13,06,53,10.00
2013,07,13,06,54,10.00
2013,07,13,06,55,10.10
2013,07,13,06,56,10.10
2013,07,13,06,57,10.10
2013,07,13,06,58,10.20
2013,07,13,06,59,10.20
2013,07,13,07,00,10.20
2013,07,13,07,01,10.20
2013,07,13,07,02,10.20
2013,07,13,07,03,10.20
2013,07,13,07,04,10.20
2013,07,13,07,05,10.30
2013,07,13,07,06,10.30
2013,07,13,07,07,10.30
2013,07,13,07,08,10.30
2013,07,13,07,09,10.30
2013,07,13,07,10,10.40
2013,07,13,07,11,10.40
2013,07,13,07,12,10.40
2013,07,13,07,13,10.40
2013,07,13,07,14,10.40
2013,07,13,07,15,10.50
2013,07,13,07,16,10.50
2013,07,13,07,17,10.50
2013,07,13,07,18,10.50
2013,07,13,07,19,10.50
2013,07,13,07,20,10.60
2013,07,13,07,21,10.60
2013,07,13,07,22,10.60
2013,07,13,07,23,10.60
2013,07,13,07,24,10.70
2013,07,13,07,25,10.70
2013,07,13,07,26,10.70
2013,07,13,07,27,10.80
2013,07,13,07,28,10.80
2013,07,13,07,29,10.90
2013,07,13,07,30,11.00
2013,07,13,07,31,11.10
2013,07,13,07,32,11.10
2013,07,13,07,33,11.20
2013,07,13,07,34,11.30
2013,07,13,07,35,11.30
2013,07,13,07,36,11.40
2013,07,13,07,37,11.40
2013,07,13,07,38,11.50
2013,07,13,07,39,11.50
2013,07,13,07,40,11.60
2013,07,13,07,41,11.60
2013,07,13,07,42,11.60
2013,07,13,07,43,11.70
2013,07,13,07,44,11.70
2013,07,13,07,45,11.70
2013,07,13,07,46,11.80
2013,07,13,07,47,11.80
2013,07,13,07,48,11.80
2013,07,13,07,49,11.90
2013,07,13,07,50,11.90
2013,07,13,07,51,11.90
2013,07,13,07,52,11.90
2013,07,13,07,53,12.00
2013,07,13,07,54,12.00
2013,07,13,07,55,12.10
2013,07,13,07,56,12.10
2013,07,13,07,57,12.20
2013,07,13,07,58,12.30
2013,07,13,07,59,12.40
2013,07,13,08,00,12.50
2013,07,13,08,01,12.60
2013,07,13,08,02,12.70
2013,07,13,08,03,12.70
2013,07,13,08,04,12.80
2013,07,13,08,05,12.90
2013,07,13,08,06,13.00
2013,07,13,08,07,13.10
2013,07,13,08,08,13.10
2013,07,13,08,09,13.20
2013,07,13,08,10,13.30
2013,07,13,08,11,13.40
2013,07,13,08,12,13.40
2013,07,13,08,13,13.50
2013,07,13,08,14,13.60
2013,07,13,08,15,13.70
2013,07,13,08,16,13.80
2013,07,13,08,17,13.90
2013,07,13,08,18,14.00
2013,07,13,08,19,14.10
2013,07,13,08,20,14.20
2013,07,13,08,21,14.30
2013,07,13,08,22,14.40
2013,07,13,08,23,14.50
2013,07,13,08,24,14.60
2013,07,13,08,25,14.70
2013,07,13,08,26,14.70
2013,07,13,08,27,14.80
2013,07,13,08,28,14.90
2013,07,13,08,29,15.00
2013,07,13,08,30,15.00
2013,07,13,08,31,15.00
2013,07,13,08,32,15.00
2013,07,13,08,33,15.10
2013,07,13,08,34,15.10
2013,07,13,08,35,15.20
2013,07,13,08,36,15.20
2013,07,13,08,37,15.20
2013,07,13,08,38,15.20
2013,07,13,08,39,15.30
2013,07,13,08,40,15.30
2013,07,13,08,41,15.40
2013,07,13,08,42,15.40
2013,07,13,08,43,15.50
2013,07,13,08,44,15.50
2013,07,13,08,45,15.50
2013,07,13,08,46,15.60
2013,07,13,08,47,15.60
2013,07,13,08,48,15.60
2013,07,13,08,49,15.60
2013,07,13,08,50,15.60
2013,07,13,08,51,15.60
2013,07,13,08,52,15.60
2013,07,13,08,53,15.60
2013,07,13,08,54,15.60
2013,07,13,08,55,15.70
2013,07,13,08,56,15.70
2013,07,13,08,57,15.70
2013,07,13,08,58,15.80
2013,07,13,08,59,15.80
2013,07,13,09,00,15.90
2013,07,13,09,01,16.00
2013,07,13,09,02,16.00
2013,07,13,09,03,16.10
2013,07,13,09,04,16.10
2013,07,13,09,05,16.10
2013,07,13,09,06,16.20
2013,07,13,09,07,16.30
2013,07,13,09,08,16.40
2013,07,13,09,09,16.50
2013,07,13,09,10,16.60
2013,07,13,09,11,16.70
2013,07,13,09,12,16.80
2013,07,13,09,13,16.80
2013,07,13,09,14,16.80
2013,07,13,09,15,16.90
2013,07,13,09,16,17.00
2013,07,13,09,17,17.10
2013,07,13,09,18,17.20
2013,07,13,09,19,17.30
2013,07,13,09,20,17.40
2013,07,13,09,21,17.50
2013,07,13,09,22,17.60
2013,07,13,09,23,17.60
2013,07,13,09,24,17.60
2013,07,13,09,25,17.60
2013,07,13,09,26,17.50
2013,07,13,09,27,17.40
2013,07,13,09,28,17.40
2013,07,13,09,29,17.40
2013,07,13,09,30,17.40
2013,07,13,09,31,17.50
2013,07,13,09,32,17.60
2013,07,13,09,33,17.70
2013,07,13,09,34,17.70
2013,07,13,09,35,17.80
2013,07,13,09,36,17.90
2013,07,13,09,37,18.00
2013,07,13,09,38,18.10
2013,07,13,09,39,18.20
2013,07,13,09,40,18.20
2013,07,13,09,41,18.20
2013,07,13,09,42,18.20
2013,07,13,09,43,18.30
2013,07,13,09,44,18.30
2013,07,13,09,45,18.40
2013,07,13,09,46,18.40
2013,07,13,09,47,18.40
2013,07,13,09,48,18.40
2013,07,13,09,49,18.40
2013,07,13,09,50,18.30
2013,07,13,09,51,18.30
2013,07,13,09,52,18.30
2013,07,13,09,53,18.20
2013,07,13,09,54,18.10
2013,07,13,09,55,18.10
2013,07,13,09,56,18.20
2013,07,13,09,57,18.10
2013,07,13,09,58,18.10
2013,07,13,09,59,18.10
2013,07,13,10,00,18.10
2013,07,13,10,01,18.10
2013,07,13,10,02,18.10
2013,07,13,10,03,18.10
2013,07,13,10,04,18.20
2013,07,13,10,05,18.20
2013,07,13,10,06,18.20
2013,07,13,10,07,18.20
2013,07,13,10,08,18.20
2013,07,13,10,09,18.30
2013,07,13,10,10,18.40
2013,07,13,10,11,18.40
2013,07,13,10,12,18.50
2013,07,13,10,13,18.60
2013,07,13,10,14,18.70
2013,07,13,10,15,18.70
2013,07,13,10,16,18.80
2013,07,13,10,17,18.90
2013,07,13,10,18,18.90
2013,07,13,10,19,18.90
2013,07,13,10,20,19.00
2013,07,13,10,21,19.00
2013,07,13,10,22,19.00
2013,07,13,10,23,18.90
2013,07,13,10,24,19.00
2013,07,13,10,25,19.00
2013,07,13,10,26,19.00
2013,07,13,10,27,19.00
2013,07,13,10,28,18.90
2013,07,13,10,29,18.80
2013,07,13,10,30,18.80
2013,07,13,10,31,18.70
2013,07,13,10,32,18.70
2013,07,13,10,33,18.70
2013,07,13,10,34,18.80
2013,07,13,10,35,18.80
2013,07,13,10,36,18.70
2013,07,13,10,37,18.70
2013,07,13,10,38,18.70
2013,07,13,10,39,18.70
2013,07,13,10,40,18.60
2013,07,13,10,41,18.50
2013,07,13,10,42,18.50
2013,07,13,10,43,18.50
2013,07,13,10,44,18.50
2013,07,13,10,45,18.50
2013,07,13,10,46,18.50
2013,07,13,10,47,18.50
2013,07,13,10,48,18.50
2013,07,13,10,49,18.50
2013,07,13,10,50,18.50
2013,07,13,10,51,18.50
2013,07,13,10,52,18.40
2013,07,13,10,53,18.40
2013,07,13,10,54,18.30
2013,07,13,10,55,18.30
2013,07,13,10,56,18.30
2013,07,13,10,57,18.30
2013,07,13,10,58,18.30
2013,07,13,10,59,18.30
2013,07,13,11,00,18.40
2013,07,13,11,01,18.40
2013,07,13,11,02,18.50
2013,07,13,11,03,18.50
2013,07,13,11,04,18.60
2013,07,13,11,05,18.70
2013,07,13,11,06,18.70
2013,07,13,11,07,18.80
2013,07,13,11,08,18.90
2013,07,13,11,09,19.00
2013,07,13,11,10,19.10
2013,07,13,11,11,19.10
2013,07,13,11,12,19.10
2013,07,13,11,13,19.10
2013,07,13,11,14,19.10
2013,07,13,11,15,19.10
2013,07,13,11,16,19.10
2013,07,13,11,17,19.00
2013,07,13,11,18,18.90
2013,07,13,11,19,18.90
2013,07,13,11,20,18.90
2013,07,13,11,21,18.90
2013,07,13,11,22,18.90
2013,07,13,11,23,18.90
2013,07,13,11,24,18.90
2013,07,13,11,25,19.00
2013,07,13,11,26,19.10
2013,07,13,11,27,19.20
2013,07,13,11,28,19.30
2013,07,13,11,29,19.30
2013,07,13,11,30,19.40
2013,07,13,11,31,19.40
2013,07,13,11,32,19.40
2013,07,13,11,33,19.50
2013,07,13,11,34,19.60
2013,07,13,11,35,19.60
2013,07,13,11,36,19.60
2013,07,13,11,37,19.40
2013,07,13,11,38,19.30
2013,07,13,11,39,19.20
2013,07,13,11,40,19.20
2013,07,13,11,41,19.20
2013,07,13,11,42,19.30
2013,07,13,11,43,19.30
2013,07,13,11,44,19.30
2013,07,13,11,45,19.30
2013,07,13,11,46,19.30
2013,07,13,11,47,19.30
2013,07,13,11,48,19.40
2013,07,13,11,49,19.50
2013,07,13,11,50,19.60
2013,07,13,11,51,19.70
2013,07,13,11,52,19.70
2013,07,13,11,53,19.70
2013,07,13,11,54,19.70
2013,07,13,11,55,19.70
2013,07,13,11,56,19.80
2013,07,13,11,57,19.80
2013,07,13,11,58,19.80
2013,07,13,11,59,19.80
2013,07,13,12,00,19.80
2013,07,13,12,01,19.80
2013,07,13,12,02,19.80
2013,07,13,12,03,19.80
2013,07,13,12,04,19.90
2013,07,13,12,05,20.00
2013,07,13,12,06,20.10
2013,07,13,12,07,20.10
2013,07,13,12,08,20.20
2013,07,13,12,09,20.20
2013,07,13,12,10,20.20
2013,07,13,12,11,20.20
2013,07,13,12,12,20.10
2013,07,13,12,13,20.00
2013,07,13,12,14,19.90
2013,07,13,12,15,19.80
2013,07,13,12,16,19.80
2013,07,13,12,17,19.90
2013,07,13,12,18,20.00
2013,07,13,12,19,20.10
2013,07,13,12,20,20.20
2013,07,13,12,21,20.30
2013,07,13,12,22,20.40
2013,07,13,12,23,20.50
2013,07,13,12,24,20.60
2013,07,13,12,25,20.60
2013,07,13,12,26,20.60
2013,07,13,12,27,20.50
2013,07,13,12,28,20.50
2013,07,13,12,29,20.50
2013,07,13,12,30,20.50
2013,07,13,12,31,20.60
2013,07,13,12,32,20.50
2013,07,13,12,33,20.40
2013,07,13,12,34,20.30
2013,07,13,12,35,20.20
2013,07,13,12,36,19.90
2013,07,13,12,37,19.70
2013,07,13,12,38,19.50
2013,07,13,12,39,19.50
2013,07,13,12,40,19.40
2013,07,13,12,41,19.30
2013,07,13,12,42,19.30
2013,07,13,12,43,19.30
2013,07,13,12,44,19.40
2013,07,13,12,45,19.40
2013,07,13,12,46,19.50
2013,07,13,12,47,19.50
2013,07,13,12,48,19.60
2013,07,13,12,49,19.60
2013,07,13,12,50,19.60
2013,07,13,12,51,19.70
2013,07,13,12,52,19.70
2013,07,13,12,53,19.80
2013,07,13,12,54,19.80
2013,07,13,12,55,19.80
2013,07,13,12,56,19.80
2013,07,13,12,57,19.80
2013,07,13,12,58,19.90
2013,07,13,12,59,19.90
2013,07,13,13,00,19.80
2013,07,13,13,01,19.70
2013,07,13,13,02,19.50
2013,07,13,13,03,19.50
2013,07,13,13,04,19.40
2013,07,13,13,05,19.40
2013,07,13,13,06,19.40
2013,07,13,13,07,19.40
2013,07,13,13,08,19.30
2013,07,13,13,09,19.30
2013,07,13,13,10,19.30
2013,07,13,13,11,19.20
2013,07,13,13,12,19.00
2013,07,13,13,13,19.00
2013,07,13,13,14,19.00
2013,07,13,13,15,19.10
2013,07,13,13,16,19.10
2013,07,13,13,17,19.10
2013,07,13,13,18,19.20
2013,07,13,13,19,19.30
2013,07,13,13,20,19.40
2013,07,13,13,21,19.50
2013,07,13,13,22,19.40
2013,07,13,13,23,19.40
2013,07,13,13,24,19.40
2013,07,13,13,25,19.40
2013,07,13,13,26,19.50
2013,07,13,13,27,19.50
2013,07,13,13,28,19.60
2013,07,13,13,29,19.80
2013,07,13,13,30,19.80
2013,07,13,13,31,19.90
2013,07,13,13,32,20.00
2013,07,13,13,33,20.00
2013,07,13,13,34,19.90
2013,07,13,13,35,19.90
2013,07,13,13,36,20.00
2013,07,13,13,37,20.00
2013,07,13,13,38,20.00
2013,07,13,13,39,20.00
2013,07,13,13,40,20.00
2013,07,13,13,41,20.10
2013,07,13,13,42,20.10
2013,07,13,13,43,20.20
2013,07,13,13,44,20.20
2013,07,13,13,45,20.30
2013,07,13,13,46,20.30
2013,07,13,13,47,20.30
2013,07,13,13,48,20.40
2013,07,13,13,49,20.50
2013,07,13,13,50,20.60
2013,07,13,13,51,20.80
2013,07,13,13,52,21.00
2013,07,13,13,53,21.10
2013,07,13,13,54,21.10
2013,07,13,13,55,21.20
2013,07,13,13,56,21.20
2013,07,13,13,57,21.30
2013,07,13,13,58,21.30
2013,07,13,13,59,21.30
2013,07,13,14,00,21.30
2013,07,13,14,01,21.30
2013,07,13,14,02,21.20
2013,07,13,14,03,21.20
2013,07,13,14,04,21.20
2013,07,13,14,05,21.20
2013,07,13,14,06,21.20
2013,07,13,14,07,21.10
2013,07,13,14,08,21.00
2013,07,13,14,09,20.90
2013,07,13,14,10,20.80
2013,07,13,14,11,20.80
2013,07,13,14,12,20.80
2013,07,13,14,13,20.70
2013,07,13,14,14,20.70
2013,07,13,14,15,20.60
2013,07,13,14,16,20.40
2013,07,13,14,17,20.30
2013,07,13,14,18,20.10
2013,07,13,14,19,20.10
2013,07,13,14,20,20.10
2013,07,13,14,21,20.10
2013,07,13,14,22,20.10
2013,07,13,14,23,20.00
2013,07,13,14,24,19.90
2013,07,13,14,25,19.80
2013,07,13,14,26,19.70
2013,07,13,14,27,19.80
2013,07,13,14,28,19.90
2013,07,13,14,29,19.90
2013,07,13,14,30,19.90
2013,07,13,14,31,19.90
2013,07,13,14,32,19.90
2013,07,13,14,33,20.00
2013,07,13,14,34,20.10
2013,07,13,14,35,20.20
2013,07,13,14,36,20.30
2013,07,13,14,37,20.30
2013,07,13,14,38,20.30
2013,07,13,14,39,20.20
2013,07,13,14,40,20.10
2013,07,13,14,41,20.10
2013,07,13,14,42,20.10
2013,07,13,14,43,20.00
2013,07,13,14,44,20.00
2013,07,13,14,45,20.00
2013,07,13,14,46,19.90
2013,07,13,14,47,19.90
2013,07,13,14,48,19.90
2013,07,13,14,49,19.90
2013,07,13,14,50,20.00
2013,07,13,14,51,20.10
2013,07,13,14,52,20.20
2013,07,13,14,53,20.30
2013,07,13,14,54,20.30
2013,07,13,14,55,20.30
2013,07,13,14,56,20.30
2013,07,13,14,57,20.40
2013,07,13,14,58,20.40
2013,07,13,14,59,20.40
2013,07,13,15,00,20.40
2013,07,13,15,01,20.30
2013,07,13,15,02,20.20
2013,07,13,15,03,20.10
2013,07,13,15,04,20.10
2013,07,13,15,05,20.00
2013,07,13,15,06,20.00
2013,07,13,15,07,19.90
2013,07,13,15,08,19.90
2013,07,13,15,09,19.90
2013,07,13,15,10,20.00
2013,07,13,15,11,20.00
2013,07,13,15,12,20.00
2013,07,13,15,13,20.00
2013,07,13,15,14,20.00
2013,07,13,15,15,20.10
2013,07,13,15,16,20.20
2013,07,13,15,17,20.20
2013,07,13,15,18,20.30
2013,07,13,15,19,20.30
2013,07,13,15,20,20.20
2013,07,13,15,21,20.20
2013,07,13,15,22,20.30
2013,07,13,15,23,20.30
2013,07,13,15,24,20.40
2013,07,13,15,25,20.40
2013,07,13,15,26,20.40
2013,07,13,15,27,20.50
2013,07,13,15,28,20.60
2013,07,13,15,29,20.60
2013,07,13,15,30,20.60
2013,07,13,15,31,20.60
2013,07,13,15,32,20.60
2013,07,13,15,33,20.60
2013,07,13,15,34,20.50
2013,07,13,15,35,20.50
2013,07,13,15,36,20.50
2013,07,13,15,37,20.50
2013,07,13,15,38,20.40
2013,07,13,15,39,20.30
2013,07,13,15,40,20.30
2013,07,13,15,41,20.30
2013,07,13,15,42,20.20
2013,07,13,15,43,20.20
2013,07,13,15,44,20.20
2013,07,13,15,45,20.30
2013,07,13,15,46,20.30
2013,07,13,15,47,20.30
2013,07,13,15,48,20.30
2013,07,13,15,49,20.30
2013,07,13,15,50,20.30
2013,07,13,15,51,20.30
2013,07,13,15,52,20.40
2013,07,13,15,53,20.40
2013,07,13,15,54,20.40
2013,07,13,15,55,20.40
2013,07,13,15,56,20.40
2013,07,13,15,57,20.50
2013,07,13,15,58,20.50
2013,07,13,15,59,20.50
2013,07,13,16,00,20.50
2013,07,13,16,01,20.60
2013,07,13,16,02,20.70
2013,07,13,16,03,20.80
2013,07,13,16,04,20.90
2013,07,13,16,05,21.00
2013,07,13,16,06,21.10
2013,07,13,16,07,21.10
2013,07,13,16,08,21.20
2013,07,13,16,09,21.20
2013,07,13,16,10,21.20
2013,07,13,16,11,21.20
2013,07,13,16,12,21.30
2013,07,13,16,13,21.30
2013,07,13,16,14,21.40
2013,07,13,16,15,21.50
2013,07,13,16,16,21.50
2013,07,13,16,17,21.50
2013,07,13,16,18,21.50
2013,07,13,16,19,21.60
2013,07,13,16,20,21.70
2013,07,13,16,21,21.70
2013,07,13,16,22,21.60
2013,07,13,16,23,21.60
2013,07,13,16,24,21.50
2013,07,13,16,25,21.60
2013,07,13,16,26,21.60
2013,07,13,16,27,21.70
2013,07,13,16,28,21.60
2013,07,13,16,29,21.60
2013,07,13,16,30,21.60
2013,07,13,16,31,21.70
2013,07,13,16,32,21.80
2013,07,13,16,33,21.90
2013,07,13,16,34,22.00
2013,07,13,16,35,22.00
2013,07,13,16,36,22.20
2013,07,13,16,37,22.10
2013,07,13,16,38,22.00
2013,07,13,16,39,21.90
2013,07,13,16,40,21.80
2013,07,13,16,41,21.70
2013,07,13,16,42,21.60
2013,07,13,16,43,21.40
2013,07,13,16,44,21.40
2013,07,13,16,45,21.30
2013,07,13,16,46,21.30
2013,07,13,16,47,21.20
2013,07,13,16,48,21.30
2013,07,13,16,49,21.20
2013,07,13,16,50,21.20
2013,07,13,16,51,21.10
2013,07,13,16,52,21.20
2013,07,13,16,53,21.20
2013,07,13,16,54,21.20
2013,07,13,16,55,21.20
2013,07,13,16,56,21.10
2013,07,13,16,57,21.10
2013,07,13,16,58,21.10
2013,07,13,16,59,21.10
2013,07,13,17,00,21.00
2013,07,13,17,01,21.00
2013,07,13,17,02,20.90
2013,07,13,17,03,21.00
2013,07,13,17,04,21.00
2013,07,13,17,05,21.10
2013,07,13,17,06,21.10
2013,07,13,17,07,21.20
2013,07,13,17,08,21.20
2013,07,13,17,09,21.20
2013,07,13,17,10,21.20
2013,07,13,17,11,21.20
2013,07,13,17,12,21.20
2013,07,13,17,13,21.20
2013,07,13,17,14,21.20
2013,07,13,17,15,21.20
2013,07,13,17,16,21.20
2013,07,13,17,17,21.20
2013,07,13,17,18,21.20
2013,07,13,17,19,21.20
2013,07,13,17,20,21.20
2013,07,13,17,21,21.30
2013,07,13,17,22,21.30
2013,07,13,17,23,21.30
2013,07,13,17,24,21.30
2013,07,13,17,25,21.30